Weather in Tabat

Russia / Republic of Khakassia     52°55′29″N   90°42′47″E
temp.,
°C
wind,
m/s
gust,
m/s
humid.,
%
clouds,
%
prec.,
mm/h
press.,
hPa
HPBL,
m
11 april, sun
sun1101:00−3ne239636 1.0 104082
04:00−5sse119131 0.0 104113
07:00−5sse22838 0.0 104239
10:00+1ne22542 0.0 1042708
13:00+4ne22440 0.0 1040928
16:00+5ne224449 0.0 1038894
19:00+3ese1159100 0.0 103824
22:000sse227682 0.0 103916
12 april, mon
mon1201:00−1s228121 0.0 103712
04:00−2s228224 0.0 103614
07:00−1ssw117795 0.0 103626
10:00+5wsw2355100 0.0 1033392
13:00+10wsw573587 0.0 1030835
16:00+11wsw584398 0.0 10291085
19:00+6s4777100 0.7 1029209
22:00+5s477896 0.0 1028117
13 april, tue
tue1301:00+4ssw3671100 0.0 1026112
04:00+6sw61357100 0.0 1024386
07:00+5sw51163100 0.0 1025397
10:00+5wsw4861100 0.1 1025595
13:00+4nnw2366100 0.7 1026779
16:00+2wsw41096100 3.4 1027598
19:00+3w7116970 3.9 10281245
22:000w6117288 0.3 1031751
14 april, wed
wed1401:00−1sw61182100 0.4 1032511
04:000wsw81479100 0.2 1031962
07:00−1wsw81475100 0.2 10321005
10:00+3wsw91262100 0.0 10321490
13:00+5w91254100 0.6 10301910
16:00+5w81257100 0.5 10291832
19:00+3wsw71168100 0.6 10291026
22:00+2sw71377100 0.6 1028945
15 april, thu
thu1501:00+2sw71477100 1.3 1026803
04:00+2sw61280100 0.4 1025728
07:00+3wsw61281100 0.9 10251013
10:00+6wsw61063100 0.3 10241023
13:00+8wsw694879 0.3 10221348
16:00+11wsw674972 0.0 10211718
19:00+8wsw48615 0.0 1020436
22:00+4s3380100 0.0 102146